Regional Weather Roundup
Issued by NWS

Home | Current Version | Previous Version | Text Only | Print | Product List | Glossary On
Versions: 1 2 3 4 5 6 7 8 9 10 11 12 13 14 15 16 17 18 19 20 21 22 23 24 25 26 27 28 29 30 31 32 33 34 35 36 37 38 39 40 41 42 43 44 45 46 47 48 49 50
000
ASUS43 KIND 280909
RWRIN

WEATHER ROUNDUP FOR INDIANA
NATIONAL WEATHER SERVICE INDIANAPOLIS IN
400 AM EST FRI NOV 28 2014

NOTE: "FAIR" INDICATES FEW OR NO CLOUDS BELOW 12,000 FEET WITH NO
SIGNIFICANT WEATHER AND/OR OBSTRUCTIONS TO VISIBILITY.

* - STATION DOES NOT REPORT WEATHER SUCH AS PRECIPITATION OR FOG.

+ - STATION NOT QUALITY CONTROLLED BY THE NATIONAL WEATHER SERVICE.
    USE DATA WITH CAUTION...ESPECIALLY DEWPOINT AND RELATIVE
    HUMIDITY OBSERVATIONS.

INZ001>003-010>013-019-020-281000-
NORTHWEST INDIANA

CITY           SKY/WX    TMP DP  RH WIND       PRES   REMARKS
GARY /AIRPORT/ CLOUDY    22  13  67 CALM      30.39S
KNOX *+        PTCLDY    19  16  87 SW6       30.38R WCI  11
LA PORTE +     PTCLDY    20  17  87 SW3       30.36S
MICHIGAN CITY+ MOCLDY    21  12  68 SW7       30.37S WCI  13
MONTICELLO +   MOCLDY    19  17  89 W5        30.38F WCI  13
RENSSELAER +   MOCLDY    21  19  93 SW6       30.39S WCI  14
VALPARAISO     CLOUDY    19  13  77 SW3       30.37R

$$

LMZ046-743>745-281000-
SOUTHERN LAKE MICHIGAN

STATION/POSITION TIME  TEMP WIND        PRES
                       AIR  DIR/SP/G
                 (UTC) (F)  (DEG/KT/KT) (MB)
MICHIGAN CITY    0900   21  180/  9/ 10   N/A

$$

INZ004-005-014>016-021>024-281000-
NORTH CENTRAL INDIANA

CITY           SKY/WX    TMP DP  RH WIND       PRES   REMARKS
GOSHEN         MOCLDY    16  12  84 CALM      30.34F
LOGANSPORT +   PTCLDY    21  14  73 W3        30.39R
ROCHESTER +    PTCLDY    23  18  80 W5        30.37R WCI  17
SOUTH BEND     PTCLDY    15  11  83 SW8       30.36R WCI   4
WARSAW +       PTCLDY    16  14  93 CALM      30.35R

$$

INZ006>009-017-018-025>027-281000-
NORTHEAST INDIANA

CITY           SKY/WX    TMP DP  RH WIND       PRES   REMARKS
ANGOLA *+      MOCLDY    19  16  86 CALM      30.32F
AUBURN +       PTCLDY    21  18  86 CALM      30.35F
FORT WAYNE     MOCLDY    20  15  81 CALM      30.37S
HUNTINGTON +   CLEAR     19  15  83 SW3       30.36S

$$

INZ028-029-035-036-043>045-051>053-281000-
WEST CENTRAL INDIANA

CITY           SKY/WX    TMP DP  RH WIND       PRES   REMARKS
GREENCASTLE +  MOCLDY    19  18  93 W5        30.41R WCI  13
LAFAYETTE      MOCLDY    18  16  92 SW3       30.40R
TERRE HAUTE    CLOUDY    20  14  77 CALM      30.42S

$$

INZ030>032-037>040-046>048-054>057-064-065-281000-
CENTRAL INDIANA

CITY           SKY/WX    TMP DP  RH WIND       PRES   REMARKS
CP ATTERBURY + MOCLDY    23  21  93 W5        30.41R WCI  17
FRANKFORT +    MOCLDY    19  17  93 CALM      30.40R
INDIANAPOLIS   CLOUDY    21  18  88 SW10      30.38R WCI  10
-EAGLE CREEK   PTCLDY    21  18  88 W6        30.39R WCI  13
KOKOMO *+      PTCLDY    21  18  86 W7        30.37R WCI  13
MARION +         N/A     23  19  84 W8        30.37R WCI  14
MT COMFORT *+  CLEAR     19  18  93 CALM      30.39R
SHELBYVILLE    CLOUDY    25  19  78 W3        30.38R
ZIONSVILLE +   PTCLDY    20  16  84 W3        30.39R

$$

INZ033-034-041-042-049-050-058-059-281000-
EAST CENTRAL INDIANA

CITY           SKY/WX    TMP DP  RH WIND       PRES   REMARKS
MUNCIE         CLOUDY    24  16  71 CALM      30.35F

$$

INZ060-061-067>069-081>083-085>088-281000-
SOUTHWEST INDIANA

CITY           SKY/WX    TMP DP  RH WIND       PRES   REMARKS
EVANSVILLE     CLOUDY    26  20  77 CALM      30.45S
HUNTINGBURG *+ MOCLDY    23  18  80 CALM      30.44S
WASHINGTON +   CLOUDY    23  19  85 CALM      30.43S

$$

INZ062-063-066-070>080-084-089>092-281000-
SOUTH CENTRAL AND SOUTHEAST INDIANA

CITY           SKY/WX    TMP DP  RH WIND       PRES   REMARKS
BLOOMINGTON    MOCLDY    20  17  88 W3        30.41R
SEYMOUR +      MOCLDY    23  19  86 W5        30.41R WCI  17

$$



USA.gov is the U.S. government's official web portal to all federal, state and local government web resources and services.